(392502) = 2011 OE31 = 2014 BJ32

Discovered at Kitt Peak on 2009-02-20 by Spacewatch.

Orbit

Orbit type: Main Belt

Note: WebGL enabled browser required.

epoch2023-09-13.0
epoch JD2460200.5
perihelion date2023-08-03.97729
perihelion JD2460160.47729
argument of perihelion (°)218.19243
ascending node (°)190.51539
inclination (°)9.07098
eccentricity0.0619742
perihelion distance (AU)2.8974738
Tisserand w.r.t. Jupiter3.2
ΔV w.r.t. Earth (km/sec)10.9
semimajor axis (AU)3.0889064
mean anomaly (°)7.26613
mean daily motion (°/day)0.18155020
aphelion distance (AU)3.280
period (years)5.43
P-vector [x]0.66131024
P-vector [y]0.72115421
P-vector [z]0.20641068
Q-vector [x]-0.74956047
Q-vector [y]0.64586727
Q-vector [z]0.14496399
absolute magnitude16.47
phase slope0.15
uncertainty0
referenceMPEC 2023-Y46
observations used200
oppositions13
arc length (days)6299
first opposition used2006
last opposition used2023
residual rms (arc-secs)0.75
perturbers coarse indicatorM-v
perturbers precise indicator003Ek
first observation date used2006-09-17.0
last observation date used2023-12-16.0
computer nameMPCLINUX
Minimum Orbit Intersection Distances (in AU)
for orbit epoch: 2460200.5, reference: E2023-Y46
Mercury2.57758
Venus2.17633
Earth1.91115
Mars1.41902
Jupiter2.00983
Saturn6.14342
Uranus15.2631
Neptune26.9232

Observations

201 total observations over interval: 2006 09 17.29709 – 2023 12 16.317981
These data are available for download (format description).

Date (UT) J2000 RA J2000 Dec Magn Location Ref
2006 09 17.29709 00 22 01.26 +04 31 04.5 20.7 V 691 – Steward Observatory, Kitt Peak-Spacewatch MPS 498526
2006 09 17.31449 00 22 00.52 +04 30 57.3 20.8 V 691 – Steward Observatory, Kitt Peak-Spacewatch MPS 498526
2006 09 17.33181 00 21 59.81 +04 30 49.8 20.9 V 691 – Steward Observatory, Kitt Peak-Spacewatch MPS 498526
2009 02 20.35674 12 16 20.95 -05 19 39.5 21.2 V 691 – Steward Observatory, Kitt Peak-Spacewatch MPS 498526
2009 02 20.37484 12 16 20.39 -05 19 33.0 20.7 V 691 – Steward Observatory, Kitt Peak-Spacewatch MPS 498526
2009 02 20.39295 12 16 19.89 -05 19 28.7 21.6 V 691 – Steward Observatory, Kitt Peak-Spacewatch MPS 498526
2009 03 29.30005 11 53 12.19 -01 28 08.6 21.0 V G96 – Mt. Lemmon Survey MPS 498526
2009 03 29.30808 11 53 11.83 -01 28 05.4 20.9 V G96 – Mt. Lemmon Survey MPS 498526
2009 03 29.31627 11 53 11.54 -01 28 01.9 21.0 V G96 – Mt. Lemmon Survey MPS 498526
2009 03 29.32449 11 53 11.14 -01 27 59.0 20.8 V G96 – Mt. Lemmon Survey MPS 498526
2009 04 03.25947 11 49 58.72 -00 53 54.2 21.4 V G96 – Mt. Lemmon Survey MPS 498526
2009 04 03.26806 11 49 58.36 -00 53 51.1 21.3 V G96 – Mt. Lemmon Survey MPS 498526
2009 04 03.27656 11 49 58.04 -00 53 47.7 21.0 V G96 – Mt. Lemmon Survey MPS 498526
2009 04 03.28508 11 49 57.75 -00 53 43.8 21.9 V G96 – Mt. Lemmon Survey MPS 498526
2011 07 28.48235 22 06 43.355 -01 29 25.24 21.7 w F51 – Pan-STARRS 1, Haleakala MPS 388049
2011 07 28.49657 22 06 42.881 -01 29 27.68 21.6 w F51 – Pan-STARRS 1, Haleakala MPS 388049
2011 07 28.51079 22 06 42.411 -01 29 30.26 21.5 w F51 – Pan-STARRS 1, Haleakala MPS 388049
2011 07 28.52506 22 06 41.945 -01 29 32.74 21.6 w F51 – Pan-STARRS 1, Haleakala MPS 388049
2011 08 01.959626 22 04 13.24 -01 44 11.3 20.5 V 198 – Wildberg MPS 388049
2011 08 01.978074 22 04 12.55 -01 44 14.6 20.6 V 198 – Wildberg MPS 388049
2011 08 01.997656 22 04 11.87 -01 44 18.9 20.1 V 198 – Wildberg MPS 388049
2011 08 02.015590 22 04 11.21 -01 44 22.7 20.5 V 198 – Wildberg MPS 388049
2011 08 02.034660 22 04 10.54 -01 44 27.1 20.5 V 198 – Wildberg MPS 388049
2011 08 02.953169 22 03 37.75 -01 47 52.6 20.2 V 198 – Wildberg MPS 388049
2011 08 02.966597 22 03 37.25 -01 47 55.2 20.3 V 198 – Wildberg MPS 388049
2011 08 02.977901 22 03 36.85 -01 47 57.6 20.7 V 198 – Wildberg MPS 388049
2011 08 02.991342 22 03 36.36 -01 48 00.5 20.7 V 198 – Wildberg MPS 388049
2011 08 03.004764 22 03 35.87 -01 48 03.4 20.2 V 198 – Wildberg MPS 388049
2011 08 03.018178 22 03 35.36 -01 48 06.0 20.7 V 198 – Wildberg MPS 388049
2011 08 03.029476 22 03 35.00 -01 48 08.3 20.5 V 198 – Wildberg MPS 388049
2011 08 26.34962 21 47 37.235 -03 48 06.13 21.1 g F51 – Pan-STARRS 1, Haleakala MPS 498526
2011 08 26.35978 21 47 36.809 -03 48 09.69 21.1 g F51 – Pan-STARRS 1, Haleakala MPS 498526
2011 08 26.37170 21 47 36.283 -03 48 14.03 20.6 r F51 – Pan-STARRS 1, Haleakala MPS 498526
2011 08 26.38139 21 47 35.851 -03 48 17.60 20.6 r F51 – Pan-STARRS 1, Haleakala MPS 498526
2012 10 21.38545 04 13 22.58 +12 27 09.1 20.5 V G96 – Mt. Lemmon Survey MPS 498526
2012 10 21.39340 04 13 22.40 +12 27 06.8 20.4 V G96 – Mt. Lemmon Survey MPS 498526
2012 10 21.40146 04 13 22.22 +12 27 04.1 20.6 V G96 – Mt. Lemmon Survey MPS 498526
2012 10 21.40956 04 13 21.97 +12 27 01.5 20.1 V G96 – Mt. Lemmon Survey MPS 498526
2014 01 25.55317 10 05 14.286 +01 46 48.36 21.0 r F51 – Pan-STARRS 1, Haleakala MPS 498949
2014 01 25.55627 10 05 14.175 +01 46 49.06 21.1 r F51 – Pan-STARRS 1, Haleakala MPS 498949
2014 01 25.55783 10 05 14.112 +01 46 49.18 21.2 r F51 – Pan-STARRS 1, Haleakala MPS 498949
2014 01 25.55940 10 05 14.066 +01 46 49.68 21.1 r F51 – Pan-STARRS 1, Haleakala MPS 498949
2014 01 25.56096 10 05 14.002 +01 46 49.93 21.1 r F51 – Pan-STARRS 1, Haleakala MPS 498949
2014 01 25.56251 10 05 13.941 +01 46 50.20 21.0 r F51 – Pan-STARRS 1, Haleakala MPS 498949
2014 01 25.56407 10 05 13.881 +01 46 50.52 21.2 r F51 – Pan-STARRS 1, Haleakala MPS 498949
2014 01 26.44395 10 04 42.878 +01 49 49.62 21.1 w F51 – Pan-STARRS 1, Haleakala MPS 498949
2014 01 26.45634 10 04 42.420 +01 49 52.10 21.2 w F51 – Pan-STARRS 1, Haleakala MPS 498949
2014 01 26.46876 10 04 41.963 +01 49 54.75 21.1 w F51 – Pan-STARRS 1, Haleakala MPS 498949
2014 01 26.48122 10 04 41.482 +01 49 57.46 21.1 w F51 – Pan-STARRS 1, Haleakala MPS 498949
2014 01 26.56131 10 04 38.480 +01 50 14.00 20.8 i F51 – Pan-STARRS 1, Haleakala MPS 498526
2014 01 26.56725 10 04 38.257 +01 50 15.25 20.8 i F51 – Pan-STARRS 1, Haleakala MPS 498526
2014 01 26.57021 10 04 38.150 +01 50 15.91 20.8 i F51 – Pan-STARRS 1, Haleakala MPS 498526
2014 01 26.57318 10 04 38.038 +01 50 16.47 20.8 i F51 – Pan-STARRS 1, Haleakala MPS 498526
2014 01 26.57615 10 04 37.928 +01 50 17.18 20.7 i F51 – Pan-STARRS 1, Haleakala MPS 498526
2015 03 24.43215 15 07 39.85 -12 18 40.8 22.0 V G96 – Mt. Lemmon Survey MPS 595206
2015 03 24.43853 15 07 39.80 -12 18 39.7 21.9 V G96 – Mt. Lemmon Survey MPS 595206
2015 03 24.44489 15 07 39.68 -12 18 38.2 21.4 V G96 – Mt. Lemmon Survey MPS 595206
2015 04 14.28782 14 58 43.85 -10 36 03.2 21.8 V 691 – Steward Observatory, Kitt Peak-Spacewatch MPS 600615
2015 04 14.30506 14 58 43.27 -10 35 57.5 21.6 V 691 – Steward Observatory, Kitt Peak-Spacewatch MPS 600615
2015 04 14.32205 14 58 42.64 -10 35 52.7 21.6 V 691 – Steward Observatory, Kitt Peak-Spacewatch MPS 600615
2015 04 23.40051 14 52 46.742 -09 45 02.16 21.3 w F51 – Pan-STARRS 1, Haleakala MPS 603131
2015 04 23.41303 14 52 46.198 -09 44 57.94 21.3 w F51 – Pan-STARRS 1, Haleakala MPS 603132
2015 04 23.42549 14 52 45.656 -09 44 53.54 21.4 w F51 – Pan-STARRS 1, Haleakala MPS 603132
2015 04 23.43797 14 52 45.133 -09 44 49.57 21.3 w F51 – Pan-STARRS 1, Haleakala MPS 603132
2015 04 24.48588 14 52 01.009 -09 38 54.97 21.0 w F51 – Pan-STARRS 1, Haleakala MPS 604580
2015 04 24.49803 14 52 00.470 -09 38 50.88 21.1 w F51 – Pan-STARRS 1, Haleakala MPS 604580
2015 04 24.52222 14 51 59.400 -09 38 42.80 21.0 w F51 – Pan-STARRS 1, Haleakala MPS 604580
2015 05 18.22495 14 35 01.50 -07 36 32.9 21.4 V G96 – Mt. Lemmon Survey MPS 608547
2015 05 18.23004 14 35 01.27 -07 36 31.7 22.2 V G96 – Mt. Lemmon Survey MPS 608547
2015 05 18.23512 14 35 01.04 -07 36 31.1 22.1 V G96 – Mt. Lemmon Survey MPS 608547
2015 05 18.24019 14 35 00.96 -07 36 29.7 21.5 V G96 – Mt. Lemmon Survey MPS 608547
2016 06 08.53085 20 00 30.529 -08 12 55.74 21.7 w F51 – Pan-STARRS 1, Haleakala MPS 716561
2016 06 08.54508 20 00 30.231 -08 12 54.35 21.5 w F51 – Pan-STARRS 1, Haleakala MPS 716561
2016 06 08.57358 20 00 29.629 -08 12 51.43 21.4 w F51 – Pan-STARRS 1, Haleakala MPS 716561
2016 07 11.28378 19 41 09.50 -08 16 59.9 20.9 V G96 – Mt. Lemmon Survey MPS 721268
2016 07 11.29030 19 41 09.13 -08 17 00.8 20.1 V G96 – Mt. Lemmon Survey MPS 721268
2016 07 11.29679 19 41 08.88 -08 17 01.2 21.0 V G96 – Mt. Lemmon Survey MPS 721268
2016 07 11.30326 19 41 08.48 -08 17 02.6   G96 – Mt. Lemmon Survey MPS 721268
2017 09 19.38670 01 28 53.94 +08 18 18.4 20.8 V 691 – Steward Observatory, Kitt Peak-Spacewatch MPS 818879
2017 09 19.39503 01 28 53.67 +08 18 14.7 21.0 V 691 – Steward Observatory, Kitt Peak-Spacewatch MPS 818879
2017 09 19.40337 01 28 53.38 +08 18 11.6 21.5 V 691 – Steward Observatory, Kitt Peak-Spacewatch MPS 818879
2017 09 19.54712 01 28 49.131 +08 17 19.86 21.0 w F51 – Pan-STARRS 1, Haleakala MPS 818879
2017 09 19.55988 01 28 48.737 +08 17 15.32 20.8 w F51 – Pan-STARRS 1, Haleakala MPS 818879
2017 09 19.57260 01 28 48.340 +08 17 10.47 20.9 w F51 – Pan-STARRS 1, Haleakala MPS 818879
2017 09 19.58532 01 28 47.946 +08 17 05.92 20.9 w F51 – Pan-STARRS 1, Haleakala MPS 818879
2017 09 27.29043 01 24 31.69 +07 27 01.6 20.9 V G96 – Mt. Lemmon Survey MPS 823090
2017 09 27.29562 01 24 31.45 +07 26 59.4 20.7 V G96 – Mt. Lemmon Survey MPS 823090
2017 09 27.30088 01 24 31.30 +07 26 57.2 20.6 V G96 – Mt. Lemmon Survey MPS 823090
2017 09 27.30625 01 24 31.08 +07 26 55.2 20.7 V G96 – Mt. Lemmon Survey MPS 823090
2017 10 16.28172 01 11 37.30 +05 09 00.0 21.0 G G96 – Mt. Lemmon Survey MPS 1142591
2017 10 16.28691 01 11 37.09 +05 08 57.8 20.7 G G96 – Mt. Lemmon Survey MPS 1142591
2017 10 16.29210 01 11 36.86 +05 08 55.4 20.7 G G96 – Mt. Lemmon Survey MPS 1142591
2017 10 16.29730 01 11 36.61 +05 08 53.1 20.7 G G96 – Mt. Lemmon Survey MPS 1142591
2017 10 19.38729 01 09 27.323 +04 46 32.26 20.4 w F51 – Pan-STARRS 1, Haleakala MPS 828031
2017 10 19.39852 01 09 26.844 +04 46 27.39 20.5 w F51 – Pan-STARRS 1, Haleakala MPS 828031
2017 10 19.40975 01 09 26.347 +04 46 22.47 20.5 w F51 – Pan-STARRS 1, Haleakala MPS 828031
